Torna al catalogo

STARLINK-34623

AttivoComunicazioniVLEO
NORAD 65018·PAYLOAD·🇺🇸 United States

Lanciato Jul 30, 2025 da Cape Canaveral Space Force Station

Loading…

Prossimi Passaggi (prossime 24 ore)

TLE

AggiornatoSource: CelesTrak SupGP

Epoca: Sep 14, 2026, 23:13 UTC

1 65018C 25161D   26257.96784722 -.00050871  00000+0 -15036-2 0  2578
2 65018  53.1575 133.4602 0001341  87.5305 188.9847 15.34404290    12

Traccia STARLINK-34623 in tempo reale con AllMySat

Download on the App Store